Wind_Speed
57 54 50 48 48 48 49 50 54 57 55 52 53 55 56 57 58 58 58 58 58 59 61 64 64 60 58 60 61 60 58 58 60 60 60 60 59 60 59 58 57 56 56 56 55 54 53 53 53 53 52 51 50 49 48 47 46 47 46 44 45 44 44 45 47 49 51 52 50 46 43 40 35 32 32 34 36 39 40 41 42 42 42 42 42 43
59 53 50 51 53 53 52 53 56 58 56 52 51 52 54 56 58 59 59 58 57 57 59 60 59 55 54 56 57 58 57 57 59 63 63 62 63 62 60 59 58 57 57 56 56 55 55 55 54 54 53 52 52 50 50 49 48 49 49 48 47 46 45 44 44 46 48 49 50 50 50 49 44 38 35 36 37 40 41 42 43 44 44 43 43 45
59 54 54 57 56 54 52 53 55 56 55 53 50 49 51 55 58 59 59 58 57 58 58 57 55 52 51 52 52 53 56 58 62 64 63 62 62 62 61 60 58 57 57 57 57 57 57 56 55 55 54 53 53 52 51 50 50 50 51 49 48 47 46 44 44 45 45 46 47 49 49 50 48 43 40 39 40 42 43 43 44 45 46 46 46 47
60 58 60 61 58 54 53 53 54 53 53 52 50 48 49 54 56 57 58 58 58 59 57 55 53 50 47 46 46 47 49 55 59 60 61 63 63 62 61 60 59 58 58 59 59 58 57 56 56 56 55 54 54 53 52 52 51 51 52 50 46 45 44 43 43 44 44 45 45 45 45 44 44 43 42 42 43 44 45 46 46 47 48 48 49 50
62 62 65 63 60 57 55 55 54 51 50 51 50 49 50 52 53 56 57 57 58 59 56 54 52 47 44 42 42 40 41 45 50 52 59 65 64 63 61 59 60 61 61 60 59 58 57 57 57 56 56 55 54 54 53 52 52 51 51 49 46 42 39 38 41 42 42 43 42 41 42 42 42 42 43 44 45 46 47 47 47 48 49 50 52 54
62 65 68 66 62 59 57 56 53 49 50 50 51 52 52 52 53 55 56 56 58 58 56 54 51 46 43 42 41 38 37 39 44 50 59 64 64 62 60 58 60 61 61 60 58 57 57 57 57 56 55 54 54 54 53 52 52 51 51 50 48 45 40 38 40 42 41 42 43 44 45 46 46 45 46 47 47 48 48 48 49 49 51 53 54 56
63 66 68 66 63 61 59 57 53 50 50 51 53 55 55 52 52 54 54 54 56 57 56 53 50 47 45 43 41 39 39 40 45 53 59 60 61 60 59 60 61 60 58 58 57 57 57 58 57 56 55 54 53 53 53 52 51 51 51 51 50 48 46 44 44 45 46 47 49 49 50 50 49 48 48 48 49 50 51 51 51 50 52 53 55 56
62 66 67 65 64 62 59 57 53 51 51 53 56 57 55 53 52 52 53 53 54 56 54 51 49 48 45 44 41 40 40 42 47 53 56 56 56 56 59 62 63 60 58 58 58 58 58 58 58 56 55 54 54 53 52 51 51 51 50 51 51 49 48 48 49 51 51 51 52 52 52 51 51 50 50 50 50 51 52 53 53 52 52 53 54 55
62 65 66 65 64 62 59 57 56 54 55 58 59 57 55 54 52 51 51 52 53 53 50 49 49 48 45 42 40 39 40 42 45 49 53 54 54 55 59 62 60 59 58 58 58 58 58 58 57 57 56 55 55 54 53 52 51 51 50 51 52 51 47 46 50 53 53 52 53 55 57 58 57 56 55 54 53 52 52 54 55 54 53 54 54 55
64 66 67 66 64 61 60 61 59 57 59 62 60 57 56 55 52 50 49 51 51 49 48 48 48 47 44 42 39 37 39 42 45 47 48 49 50 53 57 58 56 54 55 54 54 54 55 55 55 55 55 55 56 55 54 53 52 51 51 51 54 53 48 46 50 55 56 56 57 59 62 64 63 61 59 57 55 54 54 55 56 56 55 55 55 56
64 66 68 66 63 63 65 65 61 60 64 65 61 57 56 55 52 49 48 49 48 46 46 46 46 45 44 42 40 40 42 45 46 46 46 46 48 51 54 53 50 50 50 49 49 49 49 49 51 52 53 54 55 55 55 54 53 52 52 52 54 54 52 52 55 58 60 61 62 63 65 66 65 63 60 58 56 56 56 57 57 57 56 56 57 58
64 65 65 64 64 66 68 66 63 64 67 64 60 57 55 53 52 49 47 46 44 43 44 45 44 43 41 40 41 43 45 46 45 45 46 46 48 49 48 46 45 46 46 45 44 44 44 45 47 49 50 51 53 54 54 55 54 54 52 51 52 53 55 57 60 61 63 64 65 66 67 66 65 62 60 58 57 57 57 57 57 57 57 57 58 60
64 62 62 64 66 68 68 65 64 66 66 62 58 56 53 52 50 47 45 42 40 41 44 44 43 41 38 39 40 42 44 44 44 45 45 45 45 44 43 42 42 42 41 41 41 41 41 41 43 45 47 48 50 51 53 54 55 55 54 52 53 55 58 61 63 65 67 68 68 68 67 66 64 62 60 59 58 58 58 57 57 57 57 58 60 61
64 64 63 63 65 66 66 64 63 64 62 59 56 54 52 50 48 45 42 39 39 41 43 43 41 39 38 38 38 39 41 42 43 43 43 43 42 41 41 41 40 39 39 40 39 39 40 39 39 41 43 46 48 49 51 53 55 57 57 58 59 61 64 67 68 69 70 69 69 68 67 65 64 62 61 60 59 58 57 57 57 58 59 60 62 63
65 64 61 60 62 63 63 62 61 62 62 59 58 56 53 51 48 47 45 41 40 42 43 42 39 37 37 37 37 38 39 39 39 40 41 41 40 40 41 40 39 39 39 39 39 39 39 39 39 40 41 45 46 46 47 49 52 55 57 60 63 65 67 68 69 69 69 69 68 67 66 65 64 63 61 60 58 57 56 57 58 59 60 61 63 64
64 62 60 61 61 61 61 61 63 65 64 62 61 59 54 52 51 51 48 45 43 43 43 41 38 36 35 36 37 37 37 38 38 39 38 39 39 40 41 40 39 38 38 39 39 39 39 39 40 41 42 44 45 43 44 45 47 50 53 56 59 61 63 64 65 66 67 67 67 66 65 64 64 62 61 59 58 58 58 59 59 60 60 62 62 63
63 63 64 65 64 62 62 62 64 65 64 63 61 57 54 56 55 53 50 47 46 45 43 41 37 35 35 37 37 38 38 38 38 37 37 37 38 39 40 40 39 38 38 38 38 38 40 40 40 40 41 41 42 41 41 42 43 45 48 51 53 54 55 57 59 61 63 64 64 64 64 64 63 63 62 61 61 61 60 60 59 59 59 59 59 59
63 64 67 67 66 65 65 65 66 66 65 64 60 58 60 61 58 54 52 49 47 45 42 40 38 37 38 39 38 38 38 38 38 38 38 38 39 40 39 40 40 38 36 36 37 38 39 38 37 38 38 38 38 38 39 39 41 43 45 46 47 48 49 51 53 56 58 60 60 61 61 62 62 62 62 61 60 59 58 57 56 56 55 55 54 53
65 67 69 68 68 68 69 69 68 68 67 65 62 63 64 61 56 54 52 49 46 45 42 40 39 39 39 39 38 38 38 39 40 39 38 39 39 40 40 41 41 38 35 35 36 37 37 36 36 36 36 36 36 36 37 38 39 42 43 44 44 45 46 48 49 51 52 54 54 55 55 56 56 56 56 55 55 54 54 53 52 52 52 51 50 49
66 69 70 69 70 72 72 71 68 67 67 66 66 66 64 60 58 57 54 50 49 47 44 42 40 39 38 37 37 38 38 40 40 38 38 38 38 39 40 42 42 39 36 35 36 36 36 36 36 35 35 35 35 35 36 37 38 40 41 42 43 44 45 46 47 47 48 48 49 49 49 50 51 52 52 52 52 52 51 50 49 49 48 47 46 45
68 70 70 71 73 75 73 69 66 65 66 66 65 63 61 59 58 57 54 52 51 48 45 42 40 39 39 39 39 40 41 42 41 39 39 39 39 40 41 42 43 41 37 36 36 37 37 36 36 36 36 35 35 35 36 37 38 39 40 41 42 43 44 45 45 46 46 46 46 47 48 49 50 50 50 50 50 49 49 48 48 47 46 45 44 42
67 70 71 73 75 74 71 68 66 66 66 66 64 63 62 60 59 57 54 52 50 48 45 43 42 42 42 42 42 43 44 44 42 40 41 41 41 41 42 43 43 41 38 37 37 38 38 38 37 37 37 37 36 37 37 38 39 39 40 40 41 41 42 44 44 45 45 46 46 47 47 48 49 49 49 49 49 49 48 48 47 46 45 44 43 41
67 70 71 73 74 73 71 71 69 68 67 68 68 67 66 64 61 59 55 53 53 50 48 46 45 44 44 43 43 44 45 44 42 41 41 41 41 41 41 42 41 40 39 39 38 39 39 38 38 38 38 38 37 37 38 39 39 39 40 40 41 41 42 43 44 44 45 45 46 47 47 47 48 49 49 49 49 49 49 48 47 46 45 43 42 41
68 70 71 72 73 72 72 72 71 70 70 70 69 68 66 64 62 60 58 57 57 54 51 49 47 45 45 45 45 44 44 43 42 41 42 42 43 42 42 42 40 40 39 39 39 39 39 38 38 38 39 39 38 38 38 39 39 39 40 40 41 41 42 43 44 44 45 46 47 47 48 48 48 49 50 50 50 49 48 47 46 45 44 43 42 41
67 69 70 71 72 72 72 73 73 71 69 68 67 65 64 63 62 62 61 60 59 56 53 51 49 48 48 47 46 45 44 44 43 42 43 43 44 44 44 43 41 40 40 39 39 39 39 39 39 39 39 39 38 38 39 40 40 41 41 42 42 43 43 44 44 45 46 47 48 49 49 49 50 50 50 50 50 49 48 47 46 45 44 43 42 41
66 69 70 70 71 71 70 70 69 67 65 64 64 64 64 64 62 62 61 60 58 55 53 51 49 49 49 47 46 45 45 45 44 44 44 45 45 45 45 44 43 42 41 41 41 40 40 40 40 39 40 39 39 40 41 41 42 42 43 43 43 44 45 45 45 46 47 48 49 50 50 50 50 50 50 50 49 49 48 47 46 45 44 43 42 41
67 69 70 70 70 70 69 68 66 64 63 63 63 64 64 63 62 61 61 58 56 54 52 50 49 48 48 47 46 46 45 45 45 45 46 46 46 46 45 44 44 44 44 43 42 41 41 41 41 41 41 40 41 42 42 43 43 43 44 43 43 43 44 44 45 46 47 47 48 49 49 49 49 49 48 48 48 47 47 46 46 45 44 42 42 41
66 69 69 69 70 70 69 68 67 65 64 63 63 63 63 63 61 60 59 57 55 54 52 51 51 49 49 49 48 47 47 47 47 47 47 47 47 47 46 46 46 46 45 44 43 42 42 43 43 43 42 42 43 43 43 43 43 43 43 43 43 43 44 44 45 46 46 46 46 46 47 47 47 47 46 46 46 46 46 45 45 44 43 42 42 41
65 67 68 69 70 69 68 68 67 66 64 64 63 63 63 63 62 61 59 58 57 56 54 54 54 52 51 51 50 49 49 49 49 48 48 48 48 49 49 49 49 48 46 45 44 44 43 44 45 45 44 44 45 45 45 44 44 44 45 45 45 45 46 46 47 47 47 46 46 47 47 47 47 47 46 46 45 45 45 45 44 44 43 42 41 42
63 65 67 68 68 67 67 67 66 66 65 65 65 64 64 64 63 61 60 59 58 58 57 57 55 54 54 53 52 51 51 51 50 50 50 50 50 51 52 52 51 50 47 45 46 45 44 44 45 45 46 47 47 48 47 47 46 47 48 48 48 48 49 49 49 49 49 48 49 49 49 48 48 47 47 47 46 46 45 44 44 43 43 42 42 42
61 64 66 66 66 66 66 66 65 65 65 65 64 64 63 63 62 60 58 57 57 57 57 56 55 54 54 54 53 53 53 53 52 52 52 52 52 53 53 53 53 51 49 48 48 47 46 47 48 48 50 50 51 51 49 48 48 48 49 50 50 50 50 50 50 49 49 49 49 49 50 49 49 49 48 48 47 47 46 45 44 43 43 42 42 43
61 63 64 64 64 63 63 63 63 63 63 62 61 61 61 61 59 57 56 55 54 55 55 55 55 55 56 56 56 56 55 55 54 54 53 54 55 55 56 55 54 53 51 51 52 52 52 52 52 53 53 53 54 54 51 49 49 49 50 50 50 50 50 49 49 49 49 49 49 50 50 50 50 50 49 49 48 48 47 46 45 44 44 44 44 44
59 61 62 62 61 61 61 61 61 60 59 58 58 58 59 58 57 55 54 53 53 53 53 54 56 57 57 58 59 58 57 57 57 56 56 56 57 57 57 57 55 54 53 53 54 54 55 55 55 55 55 56 57 56 53 51 51 51 51 51 51 51 50 49 49 49 49 50 50 51 51 51 51 52 51 51 50 49 48 47 46 46 46 46 46 46
57 59 59 59 59 59 59 60 60 58 56 55 55 56 57 57 56 55 54 53 53 52 52 53 55 56 57 58 60 60 60 60 60 59 59 59 59 59 59 58 57 56 55 55 55 55 55 56 57 57 57 58 58 57 54 53 53 52 52 52 52 52 52 50 50 50 50 51 51 52 52 52 53 53 53 53 52 51 50 49 48 48 47 47 48 48
56 57 58 58 57 57 58 58 57 55 53 53 53 55 55 55 54 54 54 53 53 53 52 53 53 55 56 57 58 59 60 61 62 62 61 61 61 61 61 60 59 58 58 57 57 56 56 57 58 59 59 60 59 57 55 55 54 53 52 52 53 53 52 52 51 51 52 53 53 53 54 54 54 54 54 54 53 52 52 51 50 50 50 49 49 49
53 54 55 55 55 55 56 56 54 52 52 52 53 53 53 53 53 53 53 53 53 53 53 53 53 53 53 54 55 56 58 59 60 61 62 63 63 63 63 62 61 61 60 59 58 57 57 58 59 60 61 60 59 57 56 56 56 54 53 52 52 53 53 52 53 53 54 54 54 55 56 56 55 55 54 53 53 52 52 52 52 52 52 52 51 50
50 52 53 53 53 54 55 55 54 53 52 52 52 52 53 53 53 54 54 54 53 53 53 53 53 53 53 53 54 54 55 55 56 58 59 60 61 62 63 62 62 61 61 60 58 58 58 58 59 60 61 60 59 58 57 57 56 55 53 53 52 53 53 53 53 54 55 55 55 56 56 55 54 54 53 52 52 52 52 53 52 52 52 52 52 52
51 53 54 55 56 57 57 57 56 54 52 52 52 52 52 53 53 54 54 53 52 52 52 53 53 53 53 53 53 54 54 54 55 56 57 57 58 59 59 58 58 58 58 57 56 56 57 58 60 62 62 61 59 58 57 57 56 54 53 52 52 53 53 54 54 55 54 55 55 55 55 54 53 52 51 51 50 50 51 51 52 52 51 52 52 53
51 52 53 54 55 56 56 56 55 53 52 52 53 53 53 53 53 54 53 51 51 52 52 52 53 53 54 54 54 54 53 54 56 57 57 56 57 56 54 53 54 54 54 54 53 52 54 57 60 63 62 59 56 54 53 53 53 52 51 51 52 52 53 53 54 54 54 55 55 54 54 53 52 51 51 50 49 48 48 49 50 51 51 51 52 52
50 49 49 50 50 51 51 51 50 50 51 52 52 52 53 53 53 51 50 49 51 53 53 53 54 54 54 53 53 53 53 54 55 54 52 52 52 50 48 48 49 50 51 52 52 53 56 59 60 61 59 56 52 51 50 50 50 50 50 50 50 51 51 52 53 54 55 55 54 53 53 52 52 52 52 51 50 49 48 48 49 50 50 51 51 52
49 49 49 48 48 48 47 47 47 48 49 50 51 51 51 51 49 48 48 50 53 53 52 52 52 51 50 50 49 50 51 51 50 48 48 47 47 45 45 46 47 48 48 49 51 54 58 59 59 59 57 54 51 49 49 49 50 50 50 51 51 51 52 53 54 55 55 54 53 53 53 53 54 54 54 53 53 52 52 51 50 50 50 50 51 52
46 47 47 47 47 47 46 46 45 46 47 49 49 49 49 47 46 47 49 51 51 50 49 49 48 47 46 46 46 48 49 48 47 46 46 45 45 45 46 46 47 48 48 49 51 54 56 58 58 58 56 54 51 50 50 50 51 51 51 52 52 53 53 54 54 54 54 52 51 52 52 53 53 54 54 55 55 55 56 54 53 51 50 50 51 52
45 45 45 45 45 45 45 45 44 46 48 49 49 48 48 47 47 49 50 49 48 47 47 46 46 45 45 46 48 49 49 47 47 46 46 46 46 47 47 47 47 49 49 50 52 53 54 55 57 57 55 54 52 51 51 51 51 51 51 51 52 53 53 53 54 53 51 50 50 50 51 52 53 54 56 57 58 58 56 55 53 52 53 53 53 53
44 44 44 44 45 45 45 45 47 50 51 51 50 50 49 49 49 49 48 48 47 46 46 46 46 47 47 48 50 50 49 48 48 47 46 46 46 46 47 47 47 48 49 50 51 51 51 52 54 54 54 54 53 52 52 51 51 51 51 51 52 52 53 53 52 50 49 49 49 51 52 53 55 57 58 58 57 56 54 52 52 52 52 53 54 54
44 44 45 45 46 46 47 49 50 51 50 50 50 50 49 48 48 48 47 47 47 46 46 48 48 49 49 50 50 49 49 49 48 47 46 47 47 46 47 46 46 46 47 47 48 48 48 49 51 51 51 52 52 52 52 51 51 51 51 52 52 52 52 51 49 48 48 49 50 52 53 55 56 56 56 55 53 52 51 51 50 51 51 52 54 55
45 45 45 45 46 46 48 49 49 49 49 49 49 49 49 48 48 48 48 48 48 48 48 49 50 50 51 51 50 49 49 49 48 47 47 48 47 46 45 45 44 44 44 45 46 46 47 48 49 50 50 50 51 51 51 51 51 51 51 51 51 50 50 48 47 47 48 50 51 53 53 54 54 53 52 52 51 50 50 51 51 52 53 54 55 56
45 44 44 45 46 47 48 48 49 49 49 49 49 49 49 49 49 49 49 49 49 50 50 51 51 51 51 51 50 49 49 48 47 47 47 47 46 45 44 43 43 43 44 45 46 47 48 49 49 49 49 50 50 50 50 50 50 50 50 50 49 49 48 47 47 48 49 51 52 53 52 52 53 52 51 51 51 51 51 52 53 53 54 56 57 58
44 45 45 46 47 48 48 48 49 49 50 50 49 49 49 49 49 49 49 49 50 51 52 52 51 52 52 51 50 49 48 47 46 46 46 47 46 44 42 42 43 44 45 46 47 47 48 49 49 49 49 49 49 49 49 49 49 49 49 49 49 48 48 48 48 49 50 51 52 52 53 53 54 53 52 52 52 53 53 54 55 56 57 58 59 60
45 45 46 47 48 48 49 49 50 51 51 50 50 50 50 50 50 50 49 51 53 54 54 53 53 53 53 51 50 49 48 46 46 45 45 45 44 42 41 41 40 40 41 43 45 47 48 48 49 49 50 50 50 50 50 50 50 50 50 49 48 48 48 48 49 50 50 51 52 53 54 55 55 54 54 54 54 54 55 56 56 57 59 60 61 63
44 45 46 46 47 48 49 50 51 51 50 50 50 50 51 51 51 51 51 53 56 56 56 55 54 53 52 50 48 47 46 45 44 43 43 43 42 41 40 39 38 37 37 38 40 42 45 47 48 49 50 50 50 50 49 49 49 48 47 46 46 46 47 48 49 50 51 52 53 54 55 56 56 55 55 55 55 56 56 57 58 59 61 62 63 64
41 42 42 43 44 46 46 47 47 47 46 46 47 47 48 49 50 50 52 54 56 56 55 54 52 51 50 48 46 45 44 42 41 40 40 40 40 41 41 40 39 38 38 37 37 39 40 42 43 44 45 45 44 44 43 43 43 42 42 43 44 46 47 48 49 50 52 53 54 55 56 56 56 56 56 56 57 57 58 59 60 61 62 63 64 65
Wind_Direction
230 231 231 232 230 229 227 226 227 227 227 227 229 230 231 231 231 231 231 230 231 232 233 235 238 238 236 235 234 234 233 235 241 244 243 242 241 241 242 242 242 243 244 245 247 248 248 249 249 250 251 251 252 253 254 255 255 255 256 259 263 269 274 276 275 275 277 279 279 279 281 285 289 289 289 290 291 290 291 293 294 294 294 295 298 300
230 229 230 231 230 228 226 225 227 227 226 227 229 231 231 231 231 231 232 233 233 234 235 237 239 240 238 237 236 235 234 234 238 242 243 243 242 243 243 243 243 244 245 246 247 248 248 249 249 250 251 252 253 253 254 255 255 256 257 261 266 271 275 278 279 277 276 276 275 274 276 278 282 287 288 289 289 290 291 293 294 295 294 294 296 299
229 228 230 231 230 229 228 228 229 228 226 226 228 230 231 231 231 232 232 233 233 233 235 237 239 240 240 239 238 237 234 233 234 238 242 243 244 244 245 245 245 245 246 246 247 248 248 249 251 251 252 253 253 254 254 255 255 257 259 263 268 271 272 276 281 280 277 276 274 274 275 275 277 281 286 289 289 290 292 294 293 293 292 292 294 297
226 226 229 230 230 230 230 231 230 229 227 226 228 230 231 231 231 231 231 231 232 233 234 236 237 238 239 241 241 240 239 238 238 240 243 244 244 245 246 246 246 246 247 247 248 249 250 251 252 252 253 254 254 255 255 256 256 257 260 265 268 270 272 274 277 277 276 276 274 273 274 276 277 279 283 286 289 291 292 293 292 292 292 291 292 296
223 224 226 227 228 228 229 231 231 229 227 226 227 229 231 231 230 230 230 230 231 233 235 236 236 237 237 239 240 240 241 244 246 244 244 245 244 245 246 246 246 246 247 247 249 250 251 252 252 253 253 254 255 256 256 256 257 258 260 263 264 264 266 270 273 275 275 273 272 272 276 279 280 281 282 284 287 291 292 293 293 293 293 292 292 294
220 222 225 225 225 226 228 230 230 229 228 226 226 228 229 229 229 229 230 229 230 233 234 234 236 236 235 235 236 234 233 237 244 244 243 244 245 245 246 247 247 247 247 248 250 251 251 252 253 253 254 255 256 256 256 257 257 258 259 261 260 255 254 261 269 272 271 270 269 272 278 283 284 283 282 283 285 288 290 292 292 292 292 292 294 295
219 221 224 224 225 225 227 229 229 229 229 227 227 227 228 228 229 230 229 229 230 231 233 234 236 236 234 233 232 231 229 228 234 241 243 245 246 246 246 247 247 248 248 248 249 250 251 252 253 253 254 255 255 256 256 256 257 257 258 259 260 256 252 254 261 263 265 268 270 273 280 285 286 284 283 283 283 284 286 288 290 291 293 294 296 297
219 221 222 223 224 225 227 229 229 229 229 229 228 227 227 228 229 230 229 229 230 231 232 234 235 235 235 234 233 231 230 228 230 236 241 244 246 246 246 246 247 248 249 249 249 250 251 252 253 253 254 254 254 255 256 256 256 256 256 258 260 259 256 253 254 258 263 267 271 275 280 284 285 285 286 286 285 284 285 287 289 291 293 294 296 297
220 221 221 221 222 223 225 227 228 228 229 229 229 226 225 227 228 229 229 229 230 231 232 232 233 234 234 235 235 235 234 233 232 234 238 241 243 244 244 245 246 247 248 249 249 250 251 252 253 254 254 254 254 254 255 255 255 255 255 256 257 259 257 252 252 258 264 268 270 274 277 281 283 285 287 287 286 286 286 288 289 290 291 292 294 296
220 220 219 219 219 219 221 224 225 226 228 229 228 226 225 226 226 228 228 229 230 231 231 230 231 233 232 230 231 233 234 234 234 235 237 240 241 242 243 244 246 247 248 249 250 251 252 254 255 255 254 254 255 254 254 254 253 254 254 254 257 258 254 251 253 258 264 269 271 273 276 280 283 284 286 287 285 285 286 287 288 289 290 291 293 294
220 220 219 218 217 217 219 220 221 223 227 228 227 226 225 225 225 227 228 229 230 229 229 229 229 230 229 227 226 226 229 231 232 234 236 237 238 239 241 243 245 247 248 249 250 251 253 254 255 255 255 255 254 254 254 254 253 253 253 254 256 256 253 252 255 259 264 269 271 274 277 280 282 283 285 286 285 284 285 285 286 287 288 290 292 293
222 222 221 219 218 219 220 220 219 222 226 227 227 226 225 224 224 225 228 230 229 228 228 228 227 227 227 226 224 224 227 230 232 234 235 236 237 239 242 244 245 246 247 248 249 249 249 250 251 253 254 254 254 254 253 253 253 252 253 254 253 251 252 256 258 262 267 271 273 275 277 279 280 281 283 284 285 284 285 285 284 285 286 289 291 292
221 222 222 220 219 220 221 220 221 224 227 228 228 228 226 225 225 226 228 229 228 228 227 227 226 224 223 223 224 225 228 230 232 234 235 236 238 240 242 243 243 244 246 246 246 246 245 245 248 251 253 252 251 251 251 251 252 251 251 250 249 249 253 259 263 266 270 272 274 275 276 278 279 280 282 283 284 285 285 284 284 284 286 288 290 291
222 221 221 221 221 221 222 221 223 227 229 230 231 230 228 227 226 227 229 229 228 229 228 226 224 221 219 220 221 224 227 229 231 233 235 237 238 240 241 241 241 241 243 244 244 245 244 242 242 246 250 251 250 248 248 248 249 250 249 249 250 253 257 261 265 268 270 272 273 274 275 276 278 279 281 282 283 285 285 285 284 284 286 287 289 290
222 222 222 223 223 223 223 222 223 226 227 227 228 228 226 225 224 224 225 225 226 228 227 225 222 218 217 217 218 221 224 227 230 233 236 238 238 239 240 240 239 239 240 242 243 243 244 242 240 239 242 246 248 247 247 247 248 249 250 250 252 254 257 260 263 266 268 270 271 273 274 276 277 278 280 281 282 284 285 286 285 286 287 288 289 290
220 219 220 221 222 222 223 223 223 225 225 224 225 225 224 224 223 222 222 221 222 225 224 222 219 216 215 215 216 220 223 226 229 231 234 238 239 238 239 239 238 238 239 241 243 244 244 243 242 241 241 244 248 249 249 250 250 251 252 252 253 255 257 260 262 264 267 268 270 272 274 275 277 278 279 280 281 283 285 286 287 287 288 289 289 290
219 217 217 218 218 219 221 222 223 225 226 226 226 226 224 223 222 222 221 220 221 223 222 220 216 214 215 216 216 218 222 225 228 230 231 234 237 239 240 240 239 237 239 242 245 246 246 246 245 246 246 247 250 251 252 253 254 255 256 256 257 259 260 262 264 265 267 268 270 272 274 275 276 277 279 281 281 283 285 286 287 288 288 289 290 290
216 216 216 216 216 216 218 220 221 222 224 224 224 225 225 224 222 221 220 220 221 223 222 218 214 213 215 216 216 218 221 224 226 227 227 230 235 238 241 242 241 239 240 243 245 247 248 249 249 250 250 251 252 254 255 256 257 258 259 260 261 263 264 265 266 267 268 269 271 273 274 276 277 278 279 281 282 283 284 286 287 288 289 290 290 291
213 214 215 215 215 216 217 218 219 220 221 222 221 223 224 224 222 222 221 220 222 223 221 218 214 213 215 217 219 220 221 224 225 226 228 230 235 239 241 244 244 242 240 243 246 248 250 252 252 252 253 254 254 255 256 257 258 259 260 262 263 264 265 265 267 268 269 271 272 274 275 276 277 279 280 281 283 284 285 286 287 288 289 290 291 292
213 213 213 213 214 215 217 218 218 220 221 222 221 222 223 223 222 222 220 219 221 221 220 218 215 215 217 219 221 223 224 226 227 228 230 232 235 239 242 245 246 244 241 243 246 248 250 252 253 254 254 255 256 256 257 258 259 260 261 263 264 265 266 267 269 270 272 273 275 276 277 278 279 280 281 283 284 285 285 287 288 289 290 290 291 292
213 212 211 212 213 215 216 217 218 220 222 223 223 224 225 225 224 223 221 219 221 220 219 217 215 215 217 219 221 223 225 226 227 226 228 230 232 235 239 243 246 246 243 242 244 246 247 249 251 253 254 254 256 257 258 259 260 262 264 265 266 268 269 271 272 273 275 276 277 278 279 280 281 282 282 283 284 285 287 288 289 290 291 291 291 292
214 213 211 211 213 215 215 216 217 219 221 222 223 223 225 225 225 225 222 222 223 222 220 217 215 216 217 217 219 223 225 226 225 225 226 228 230 233 236 241 245 246 245 243 243 244 245 246 248 250 252 254 256 258 260 262 264 265 267 268 270 271 272 273 273 275 276 278 278 279 280 280 281 281 282 284 285 287 288 289 290 290 290 290 290 290
214 214 212 211 213 214 214 215 216 217 218 220 221 221 222 222 223 224 222 222 223 222 220 218 216 217 218 218 220 223 226 228 226 225 226 228 229 232 235 239 243 246 246 245 244 245 246 247 248 250 252 255 257 259 262 264 265 267 269 271 272 273 273 273 274 275 276 277 277 278 279 280 281 282 283 284 285 287 288 289 289 289 288 288 288 288
212 213 212 212 212 213 213 214 216 216 217 219 220 221 222 221 222 223 221 221 221 220 218 218 217 217 219 220 222 223 226 229 228 227 228 229 230 232 234 237 241 244 245 246 247 247 248 250 250 252 254 256 259 261 263 264 266 268 269 271 272 272 274 275 275 275 276 277 278 279 279 280 282 282 284 285 285 286 287 287 288 288 287 286 286 286
211 211 211 211 212 212 213 215 216 217 218 220 221 223 224 223 223 223 222 221 220 219 218 217 217 218 220 221 222 223 225 228 229 229 229 231 231 232 234 236 240 244 245 246 248 249 250 251 252 253 255 257 259 261 262 263 265 267 269 270 271 272 274 275 276 276 278 279 280 280 281 282 282 283 284 285 285 285 286 286 287 287 286 284 283 284
208 210 210 210 211 212 213 216 218 220 220 221 223 224 225 225 224 225 225 224 223 221 219 218 218 220 222 223 223 224 225 227 229 230 230 232 233 234 236 238 241 244 246 247 249 250 252 253 254 255 256 258 259 260 261 262 264 266 268 269 271 272 274 275 276 277 279 280 281 282 282 283 283 284 284 285 284 284 284 284 285 284 284 282 281 282
206 208 208 208 209 210 212 215 218 221 222 222 223 225 226 227 227 227 227 227 226 225 223 222 222 223 225 226 226 226 227 228 230 231 232 233 235 237 239 242 244 246 247 248 250 252 254 256 256 257 257 258 259 260 261 263 265 267 269 270 271 272 273 274 276 277 278 280 282 283 283 283 284 284 285 284 283 283 283 282 282 282 282 280 279 280
205 207 207 207 208 209 210 212 215 218 220 221 222 224 226 228 229 229 230 230 229 229 227 226 226 227 228 229 229 229 230 230 231 232 233 234 235 238 240 243 245 247 248 250 252 254 255 257 258 258 258 258 259 261 262 264 266 269 271 270 270 271 272 273 275 277 279 281 282 283 284 284 283 284 284 283 282 282 282 281 282 281 280 278 278 278
205 206 206 207 207 208 209 211 213 216 218 219 221 223 225 227 228 229 230 230 230 230 229 228 229 229 230 231 231 231 232 233 233 234 235 235 235 237 239 242 244 246 248 252 255 256 256 257 258 259 259 260 261 263 265 266 268 271 272 271 270 271 272 274 276 277 278 280 282 283 285 284 284 284 283 283 282 282 282 282 281 280 278 277 276 277
206 205 206 207 208 208 209 211 213 216 217 218 219 221 224 226 227 228 229 229 230 230 230 230 230 231 232 232 233 233 234 234 235 236 236 237 237 238 240 241 243 244 246 250 253 254 254 255 257 258 260 262 263 265 266 268 270 271 271 270 271 273 274 275 276 277 278 280 282 283 284 285 285 284 284 283 282 282 282 282 281 279 278 276 276 275
206 207 207 207 208 208 209 211 213 216 218 219 220 221 223 226 227 229 230 230 231 232 233 233 233 233 234 235 235 235 235 236 236 237 237 239 239 240 241 242 243 243 244 245 248 250 251 253 255 257 260 262 264 265 267 268 270 270 270 269 270 272 274 274 276 277 279 281 282 283 283 284 284 284 283 283 282 281 281 281 280 279 278 277 276 276
207 208 208 208 208 209 210 212 214 217 220 221 221 223 224 227 229 230 231 233 234 235 235 236 236 236 237 238 238 238 238 239 239 239 239 240 241 242 243 243 243 243 243 243 245 247 249 252 254 257 259 261 263 264 266 267 268 269 268 268 270 272 273 274 276 277 278 279 280 282 283 283 283 282 282 283 283 281 281 280 280 280 278 278 278 277
208 208 209 209 208 208 210 213 216 219 221 222 223 224 226 228 229 231 233 234 235 236 237 237 238 238 239 239 240 241 242 242 243 242 242 243 243 244 244 245 245 245 245 245 245 247 249 251 254 256 258 260 262 264 265 266 267 266 266 267 269 271 272 274 276 276 277 278 280 282 283 283 282 282 282 283 283 282 282 281 281 281 280 279 279 278
209 209 209 210 210 209 210 213 216 219 221 222 224 225 227 228 230 231 233 234 236 237 238 238 239 240 241 241 242 243 243 244 245 245 245 245 246 246 247 247 248 248 247 248 248 249 251 253 255 257 258 260 262 264 266 266 266 265 265 266 267 270 272 274 275 276 277 278 280 282 282 282 282 282 282 283 283 283 283 283 283 283 282 281 280 279
208 209 209 209 210 210 211 214 216 219 221 223 224 225 226 228 229 231 233 234 236 237 238 239 240 240 241 242 243 243 244 245 245 246 247 247 248 249 250 250 250 250 250 250 251 251 253 255 256 258 259 261 262 264 265 265 265 264 264 265 266 268 270 272 273 275 277 278 280 281 281 281 281 281 282 283 284 284 285 285 285 284 283 283 282 279
207 208 209 209 210 211 213 215 217 219 221 223 224 225 226 227 228 229 231 233 234 236 237 238 239 240 241 242 243 244 244 245 246 246 247 248 249 250 250 251 251 252 252 253 253 254 255 256 257 258 259 260 262 263 263 263 263 263 263 263 265 267 269 271 272 274 276 278 279 280 281 280 280 280 281 283 284 285 286 286 286 285 284 284 283 281
205 206 208 208 209 211 213 215 216 218 221 223 224 224 225 226 226 228 229 231 233 235 236 238 239 240 241 242 243 244 245 246 247 248 248 248 248 249 249 250 250 251 253 254 255 255 255 255 256 257 258 259 260 262 262 262 261 261 261 263 264 266 268 269 271 273 275 277 278 279 279 279 279 280 282 283 284 285 285 286 286 286 285 283 282 281
204 205 205 206 207 209 211 213 214 216 218 221 222 223 224 225 226 227 229 230 232 235 237 238 240 241 242 244 244 245 246 247 247 247 247 247 247 248 249 250 250 251 252 253 254 255 256 256 256 256 256 257 259 261 261 260 259 259 260 261 263 265 267 269 271 272 274 276 278 278 277 277 279 281 283 285 286 286 286 285 284 285 285 284 282 281
203 204 205 206 208 209 211 213 214 215 218 220 221 221 222 224 225 227 228 230 233 235 236 238 239 241 242 243 244 245 246 246 246 247 248 249 250 251 252 252 252 251 251 251 251 252 253 253 254 255 257 257 258 259 258 258 258 258 259 261 263 265 267 269 270 271 273 276 278 277 277 278 280 282 284 285 286 287 288 287 285 284 284 283 282 281
201 203 205 207 209 211 213 215 216 217 219 221 222 222 222 223 225 226 228 230 232 234 235 236 238 240 241 243 244 245 245 246 247 248 249 250 251 252 252 251 251 250 249 248 248 248 249 251 253 255 257 257 257 256 255 255 256 257 259 261 263 264 265 266 268 271 275 278 279 278 278 279 280 282 284 285 285 286 289 290 288 285 284 283 283 282
200 201 203 205 208 210 212 214 216 217 220 222 223 224 224 225 226 227 228 230 232 233 234 236 238 239 241 242 243 243 244 245 246 247 248 248 249 249 248 248 248 248 247 247 246 245 247 250 252 254 256 256 255 255 254 255 256 257 259 260 262 263 265 267 270 274 277 279 279 278 278 279 281 283 285 286 286 286 288 289 288 286 284 283 283 282
202 203 204 205 207 208 210 213 215 218 221 223 224 225 226 226 227 227 228 230 232 234 235 237 239 240 242 242 243 244 244 245 247 248 249 250 251 251 251 250 249 249 248 247 246 246 246 248 250 252 254 255 255 255 255 256 257 258 259 260 262 264 267 269 272 275 277 278 278 277 278 280 283 285 286 287 288 288 288 289 287 285 284 283 283 283
204 205 206 208 209 210 211 213 215 218 221 223 224 225 226 225 226 227 229 231 233 235 236 238 240 241 242 243 244 246 247 249 250 252 253 255 255 255 254 253 251 250 249 247 246 246 246 247 248 250 252 253 254 255 256 257 258 259 260 261 263 266 268 270 273 275 276 276 276 278 280 282 284 286 288 289 289 289 289 289 286 284 283 284 284 284
208 208 209 211 212 213 214 215 217 219 221 223 224 225 226 227 228 229 231 233 235 237 238 240 241 242 243 244 246 248 250 251 252 253 255 256 256 256 256 255 255 253 251 248 246 245 245 245 246 247 249 251 252 254 255 256 257 259 261 262 264 266 268 271 272 273 273 274 276 279 281 283 286 288 289 289 289 290 290 289 288 286 285 285 285 285
211 211 212 213 214 215 216 218 220 222 223 225 227 228 229 230 231 233 235 236 237 239 240 241 241 242 243 244 246 248 250 251 253 254 255 255 256 256 256 256 256 255 253 249 247 245 244 244 244 246 247 249 251 252 254 256 258 260 261 263 265 267 268 270 271 271 273 275 278 280 283 286 288 289 289 289 289 289 290 289 289 288 288 287 287 288
214 214 215 216 218 219 221 222 224 226 226 227 229 230 231 232 233 234 235 237 237 238 239 240 241 242 243 244 245 246 249 251 253 255 256 256 256 256 256 256 256 256 254 251 247 245 243 243 244 245 247 248 250 252 254 256 258 260 261 263 265 266 268 269 270 272 273 276 279 282 285 288 289 289 289 289 290 290 290 290 290 290 290 289 289 289
217 218 219 220 222 223 224 226 227 228 229 229 230 231 232 232 233 234 235 236 237 238 238 239 240 241 243 244 245 246 248 250 252 254 256 257 257 256 256 256 256 256 255 252 249 246 244 243 244 245 246 248 249 251 253 255 257 259 261 264 265 265 267 268 270 272 274 277 280 283 286 290 292 291 290 291 291 291 291 291 291 291 291 291 291 292
221 222 223 224 225 227 228 229 230 231 232 232 232 233 233 234 234 234 235 237 238 239 239 239 241 242 244 245 246 247 248 249 250 252 253 255 255 256 256 256 256 255 253 251 248 246 245 244 245 246 247 248 249 251 253 255 257 260 263 265 265 265 266 268 271 274 276 279 281 284 288 292 294 292 291 291 291 292 292 292 292 292 292 292 293 292
224 225 226 227 229 230 231 233 234 235 235 235 236 236 236 237 237 237 237 238 239 240 240 240 241 242 243 245 246 246 247 247 247 248 250 252 253 254 254 254 254 253 252 248 245 244 244 245 246 247 248 250 252 254 256 258 261 264 265 265 264 264 267 270 273 277 279 281 283 286 290 293 293 292 291 292 292 292 292 292 292 292 292 292 292 291
227 228 230 231 233 234 234 235 236 237 238 239 239 239 239 239 239 239 238 239 240 241 241 241 241 241 242 243 244 244 244 244 245 246 247 248 250 250 250 250 251 252 251 249 247 246 246 247 248 250 252 254 256 258 259 261 262 262 262 262 263 266 270 273 276 279 281 283 285 288 291 292 292 291 291 291 291 291 291 291 291 291 291 291 291 291
228 230 231 232 234 236 237 238 240 241 241 240 240 240 239 238 238 237 236 236 237 239 240 240 240 240 240 239 239 240 240 240 241 243 244 245 246 247 247 249 252 252 251 250 250 250 250 251 252 254 255 256 256 257 257 257 258 259 261 263 267 270 273 275 278 280 282 284 287 289 291 291 291 290 290 290 290 290 290 290 290 291 291 292 293 293
Height
10598 10604 10611 10615 10616 10617 10619 10622 10622 10622 10627 10633 10637 10641 10645 10649 10652 10655 10658 10661 10663 10665 10666 10666 10670 10680 10690 10695 10700 10707 10715 10719 10719 10718 10719 10720 10720 10720 10724 10727 10729 10732 10733 10734 10736 10738 10740 10740 10741 10742 10743 10745 10746 10747 10748 10749 10749 10749 10750 10750 10750 10750 10750 10749 10749 10748 10747 10746 10746 10746 10746 10747 10748 10748 10747 10746 10744 10742 10742 10743 10743 10742 10742 10741 10739 10737
10593 10602 10607 10606 10606 10608 10611 10614 10613 10617 10624 10630 10634 10638 10642 10645 10646 10648 10652 10656 10660 10662 10663 10664 10669 10678 10685 10690 10695 10702 10710 10715 10715 10712 10711 10713 10713 10715 10719 10721 10724 10726 10728 10730 10731 10732 10733 10734 10736 10737 10739 10740 10741 10743 10744 10744 10745 10745 10745 10746 10745 10745 10745 10744 10743 10743 10742 10741 10741 10741 10741 10743 10744 10744 10744 10742 10741 10739 10739 10739 10738 10738 10738 10737 10735 10733
10591 10599 10598 10595 10597 10602 10607 10608 10610 10615 10621 10627 10631 10635 10638 10638 10639 10643 10647 10651 10655 10656 10658 10662 10668 10675 10681 10685 10691 10697 10702 10706 10705 10703 10706 10708 10708 10710 10713 10716 10720 10722 10723 10724 10724 10726 10727 10729 10731 10732 10734 10735 10736 10738 10739 10739 10740 10740 10741 10742 10741 10740 10740 10739 10739 10738 10737 10736 10735 10735 10736 10737 10739 10740 10739 10738 10737 10736 10736 10735 10734 10733 10733 10732 10730 10729
10585 10590 10586 10586 10592 10598 10602 10603 10606 10612 10618 10624 10628 10631 10632 10632 10635 10638 10640 10646 10649 10649 10654 10660 10665 10672 10678 10683 10688 10692 10697 10699 10700 10704 10706 10704 10703 10706 10708 10712 10715 10716 10716 10717 10718 10721 10723 10725 10726 10727 10729 10730 10731 10733 10734 10735 10736 10736 10737 10737 10737 10736 10735 10735 10735 10734 10733 10731 10731 10731 10732 10733 10734 10735 10735 10734 10734 10733 10732 10731 10730 10728 10727 10726 10725 10724
10576 10577 10574 10579 10586 10592 10595 10597 10602 10609 10615 10619 10622 10625 10625 10626 10630 10631 10634 10641 10643 10645 10652 10657 10662 10670 10676 10680 10684 10690 10695 10697 10700 10705 10703 10697 10697 10700 10704 10707 10708 10707 10709 10711 10714 10716 10718 10719 10720 10721 10723 10725 10726 10727 10729 10730 10730 10731 10732 10732 10732 10732 10731 10731 10731 10730 10729 10727 10727 10727 10728 10729 10730 10730 10730 10730 10730 10729 10728 10727 10726 10725 10723 10721 10720 10719
10566 10565 10566 10573 10580 10586 10589 10592 10599 10605 10609 10613 10616 10616 10617 10620 10623 10625 10630 10636 10638 10642 10648 10653 10660 10668 10672 10675 10679 10685 10691 10694 10696 10698 10694 10690 10692 10695 10699 10701 10700 10700 10703 10707 10709 10711 10712 10713 10714 10716 10718 10720 10721 10722 10723 10724 10725 10726 10727 10726 10726 10727 10727 10728 10728 10727 10725 10724 10724 10723 10723 10724 10725 10725 10725 10726 10725 10724 10723 10723 10723 10721 10719 10717 10715 10713
10557 10557 10561 10569 10575 10581 10584 10589 10595 10600 10603 10607 10607 10607 10610 10616 10619 10621 10627 10632 10634 10638 10643 10650 10657 10663 10667 10670 10674 10679 10683 10687 10689 10687 10685 10685 10687 10690 10694 10693 10691 10694 10698 10702 10704 10705 10706 10707 10708 10711 10714 10716 10716 10716 10717 10719 10720 10721 10721 10720 10719 10721 10723 10723 10724 10723 10722 10721 10720 10719 10719 10719 10720 10720 10721 10722 10721 10720 10719 10718 10718 10717 10715 10712 10710 10708
10551 10551 10557 10565 10570 10576 10582 10587 10592 10595 10598 10598 10597 10600 10607 10612 10614 10617 10622 10627 10629 10633 10641 10649 10654 10658 10662 10666 10670 10673 10676 10678 10680 10679 10678 10680 10682 10685 10686 10683 10684 10689 10693 10696 10697 10699 10701 10702 10704 10707 10710 10711 10711 10711 10712 10714 10715 10715 10715 10713 10712 10714 10716 10717 10718 10718 10717 10717 10715 10715 10715 10715 10715 10716 10716 10717 10717 10716 10715 10714 10713 10712 10710 10708 10706 10705
10544 10546 10553 10559 10565 10573 10579 10581 10584 10588 10590 10586 10587 10596 10603 10606 10609 10613 10619 10622 10624 10631 10640 10646 10649 10653 10659 10663 10667 10670 10671 10672 10673 10673 10673 10674 10676 10677 10675 10675 10679 10684 10687 10689 10691 10693 10695 10697 10700 10703 10705 10705 10705 10707 10708 10709 10710 10709 10709 10708 10705 10707 10710 10711 10711 10711 10711 10710 10710 10710 10710 10710 10710 10711 10712 10712 10712 10711 10711 10709 10707 10706 10705 10704 10703 10702
10536 10540 10543 10549 10558 10567 10570 10570 10575 10581 10578 10575 10582 10592 10597 10601 10606 10611 10615 10617 10622 10631 10637 10641 10645 10650 10655 10659 10663 10666 10666 10665 10665 10666 10667 10669 10670 10670 10668 10670 10675 10679 10681 10684 10686 10689 10691 10694 10696 10698 10699 10700 10700 10701 10703 10703 10704 10704 10704 10703 10701 10702 10705 10705 10706 10705 10705 10704 10705 10705 10705 10705 10705 10706 10707 10707 10707 10707 10706 10705 10703 10701 10700 10700 10699 10698
10529 10532 10536 10546 10555 10558 10557 10560 10569 10571 10565 10567 10579 10587 10592 10598 10603 10608 10611 10614 10622 10630 10633 10636 10641 10645 10650 10655 10658 10659 10658 10656 10657 10659 10661 10663 10663 10663 10662 10666 10671 10674 10676 10680 10683 10686 10688 10690 10692 10692 10694 10694 10694 10696 10697 10697 10698 10699 10699 10698 10697 10698 10699 10700 10700 10700 10699 10699 10700 10700 10700 10700 10700 10701 10702 10703 10703 10703 10702 10700 10699 10697 10695 10695 10694 10693
10525 10530 10537 10546 10550 10549 10549 10556 10564 10561 10557 10566 10577 10583 10590 10596 10600 10606 10609 10614 10621 10626 10628 10632 10636 10641 10646 10650 10651 10651 10651 10651 10652 10654 10655 10656 10657 10657 10659 10664 10668 10669 10672 10675 10678 10681 10683 10685 10686 10687 10689 10690 10690 10690 10691 10691 10692 10693 10693 10693 10693 10693 10694 10694 10694 10694 10694 10695 10695 10695 10696 10696 10696 10697 10698 10698 10698 10698 10697 10695 10694 10692 10691 10690 10689 10688
10523 10529 10535 10540 10542 10543 10547 10555 10559 10555 10558 10568 10576 10582 10590 10594 10600 10605 10608 10614 10619 10620 10623 10627 10632 10638 10642 10644 10646 10646 10646 10647 10648 10648 10650 10652 10653 10656 10658 10661 10663 10666 10668 10671 10673 10675 10677 10680 10681 10683 10685 10685 10685 10686 10686 10686 10687 10687 10688 10688 10689 10689 10689 10688 10688 10689 10689 10690 10690 10691 10691 10692 10693 10693 10693 10693 10693 10693 10692 10690 10688 10687 10687 10686 10684 10683
10520 10523 10528 10534 10538 10542 10547 10554 10557 10556 10562 10571 10576 10581 10588 10593 10599 10604 10607 10612 10614 10614 10618 10624 10629 10635 10638 10640 10641 10641 10641 10642 10643 10645 10647 10648 10651 10653 10654 10657 10659 10662 10664 10666 10668 10670 10672 10676 10678 10681 10683 10682 10681 10681 10682 10682 10683 10683 10684 10685 10685 10685 10685 10684 10685 10685 10685 10686 10686 10686 10687 10688 10688 10689 10688 10688 10688 10687 10686 10684 10683 10682 10681 10681 10679 10678
10514 10521 10529 10535 10538 10542 10547 10553 10555 10553 10557 10565 10569 10575 10582 10588 10595 10599 10602 10607 10608 10608 10613 10620 10626 10631 10634 10635 10636 10636 10637 10639 10641 10643 10644 10645 10648 10649 10650 10652 10655 10659 10661 10662 10664 10665 10668 10671 10674 10676 10679 10678 10676 10677 10678 10678 10679 10679 10679 10681 10681 10681 10681 10682 10682 10682 10682 10682 10681 10682 10682 10683 10683 10683 10683 10683 10682 10682 10680 10679 10677 10676 10676 10675 10673 10672
10509 10518 10526 10529 10532 10537 10543 10547 10546 10545 10550 10557 10561 10568 10577 10584 10587 10590 10595 10600 10601 10603 10609 10616 10622 10627 10630 10631 10632 10633 10635 10637 10638 10640 10641 10642 10643 10644 10645 10648 10652 10655 10657 10658 10660 10662 10663 10666 10668 10670 10673 10673 10672 10673 10674 10674 10675 10675 10676 10676 10676 10677 10678 10679 10679 10678 10678 10677 10677 10677 10677 10678 10678 10678 10677 10677 10677 10676 10675 10673 10672 10671 10670 10669 10667 10666
10505 10513 10516 10518 10523 10530 10535 10538 10539 10541 10547 10552 10558 10568 10574 10575 10578 10584 10590 10595 10597 10600 10606 10614 10620 10623 10625 10626 10629 10631 10632 10633 10635 10636 10638 10638 10638 10639 10640 10643 10647 10651 10653 10655 10657 10658 10659 10661 10663 10665 10667 10668 10669 10670 10670 10671 10671 10671 10671 10671 10672 10673 10674 10675 10674 10674 10673 10672 10672 10673 10673 10673 10672 10672 10672 10672 10671 10671 10669 10668 10667 10666 10665 10663 10662 10660
10499 10504 10507 10512 10518 10523 10526 10528 10531 10535 10539 10546 10557 10563 10562 10563 10572 10580 10585 10590 10594 10598 10604 10611 10616 10619 10620 10623 10625 10627 10629 10629 10630 10632 10634 10635 10634 10635 10637 10639 10643 10648 10651 10652 10653 10654 10655 10657 10659 10661 10663 10664 10665 10666 10666 10667 10667 10666 10666 10667 10668 10670 10670 10670 10669 10669 10668 10668 10668 10668 10668 10668 10667 10667 10667 10666 10666 10665 10664 10662 10661 10660 10659 10658 10656 10655
10490 10494 10499 10506 10511 10515 10517 10519 10523 10528 10533 10541 10549 10550 10551 10561 10572 10577 10582 10589 10592 10596 10601 10606 10611 10614 10617 10620 10622 10624 10625 10625 10626 10629 10631 10632 10632 10633 10635 10636 10640 10644 10648 10649 10649 10650 10652 10654 10655 10657 10658 10659 10661 10661 10662 10663 10662 10661 10662 10663 10664 10665 10665 10664 10664 10664 10664 10664 10664 10664 10664 10663 10662 10662 10661 10661 10660 10659 10658 10657 10656 10655 10654 10652 10651 10650
10483 10486 10493 10500 10503 10505 10507 10512 10520 10526 10531 10536 10540 10543 10549 10559 10566 10571 10578 10584 10587 10591 10597 10602 10607 10612 10615 10617 10618 10619 10621 10622 10624 10627 10629 10630 10631 10632 10632 10633 10636 10640 10644 10645 10646 10647 10648 10649 10651 10652 10654 10655 10656 10657 10657 10658 10658 10657 10658 10659 10660 10660 10659 10659 10660 10660 10659 10659 10660 10660 10659 10658 10657 10657 10656 10655 10654 10653 10652 10652 10651 10650 10648 10647 10646 10645
10475 10480 10487 10493 10494 10495 10502 10513 10522 10526 10528 10532 10538 10545 10551 10557 10562 10567 10573 10579 10582 10588 10594 10599 10604 10608 10610 10612 10613 10614 10615 10617 10620 10623 10626 10627 10628 10628 10628 10628 10631 10635 10639 10641 10641 10642 10643 10645 10646 10647 10649 10650 10652 10652 10653 10653 10653 10653 10654 10655 10655 10655 10656 10655 10655 10655 10655 10655 10655 10655 10654 10653 10652 10651 10651 10650 10649 10648 10647 10646 10645 10644 10643 10642 10641 10640
10472 10476 10481 10485 10487 10494 10504 10513 10518 10520 10524 10529 10535 10542 10547 10552 10557 10563 10570 10576 10581 10586 10591 10596 10600 10602 10604 10607 10609 10609 10610 10612 10616 10620 10622 10624 10624 10625 10625 10625 10627 10631 10634 10636 10637 10638 10639 10641 10643 10644 10645 10646 10647 10648 10648 10648 10649 10649 10650 10650 10651 10652 10651 10651 10650 10650 10650 10650 10650 10649 10648 10647 10646 10646 10645 10645 10644 10643 10642 10641 10640 10639 10638 10637 10636 10635
10466 10470 10476 10480 10485 10493 10501 10505 10509 10514 10518 10521 10526 10532 10537 10544 10551 10558 10566 10572 10575 10581 10587 10591 10595 10598 10601 10603 10605 10605 10607 10610 10614 10617 10619 10621 10621 10622 10622 10622 10624 10628 10630 10632 10633 10634 10636 10638 10640 10641 10642 10642 10643 10644 10644 10644 10645 10645 10646 10646 10647 10647 10646 10645 10646 10646 10645 10645 10644 10643 10643 10642 10641 10641 10640 10639 10639 10637 10636 10636 10635 10633 10633 10632 10630 10629
10458 10464 10471 10477 10483 10489 10495 10499 10504 10508 10510 10513 10519 10526 10533 10540 10548 10553 10558 10563 10566 10573 10580 10585 10590 10594 10597 10598 10600 10603 10605 10607 10610 10613 10615 10617 10618 10618 10619 10620 10622 10623 10625 10627 10629 10631 10632 10635 10636 10637 10638 10638 10640 10640 10640 10640 10640 10641 10641 10642 10642 10642 10641 10641 10641 10640 10640 10639 10638 10638 10637 10637 10636 10635 10635 10634 10633 10632 10631 10630 10629 10628 10628 10627 10626 10624
10455 10461 10467 10473 10479 10485 10490 10493 10496 10501 10507 10513 10519 10526 10531 10538 10543 10547 10551 10555 10560 10568 10575 10581 10586 10589 10590 10593 10596 10599 10602 10603 10605 10608 10610 10611 10613 10614 10615 10617 10618 10619 10621 10623 10625 10627 10629 10631 10632 10633 10634 10634 10636 10635 10635 10635 10636 10636 10637 10637 10637 10637 10636 10636 10636 10635 10634 10633 10633 10632 10632 10631 10631 10630 10630 10629 10628 10627 10626 10625 10624 10623 10623 10622 10621 10620
10450 10456 10462 10469 10476 10482 10488 10492 10497 10504 10511 10516 10519 10523 10527 10531 10537 10543 10547 10552 10559 10565 10572 10577 10581 10584 10586 10589 10593 10596 10598 10600 10601 10602 10604 10605 10607 10609 10611 10613 10614 10615 10617 10619 10621 10623 10625 10626 10628 10629 10629 10630 10631 10630 10630 10630 10631 10631 10632 10632 10632 10632 10631 10630 10630 10630 10629 10628 10627 10627 10626 10626 10626 10625 10624 10623 10622 10621 10620 10620 10619 10618 10617 10617 10616 10615
10444 10450 10456 10465 10472 10479 10485 10492 10498 10503 10508 10513 10516 10519 10523 10528 10534 10539 10543 10550 10557 10563 10569 10574 10578 10581 10583 10586 10589 10591 10594 10595 10597 10598 10599 10601 10602 10605 10607 10609 10610 10611 10613 10615 10617 10620 10621 10622 10623 10624 10625 10626 10626 10625 10625 10626 10626 10627 10627 10627 10627 10627 10626 10625 10625 10624 10624 10623 10622 10621 10621 10620 10620 10620 10619 10618 10617 10616 10615 10614 10613 10613 10612 10611 10611 10610
10440 10445 10453 10460 10466 10473 10481 10486 10491 10496 10501 10507 10511 10515 10520 10525 10530 10535 10541 10548 10554 10559 10565 10570 10573 10576 10579 10581 10583 10587 10589 10590 10592 10593 10595 10597 10600 10602 10603 10604 10605 10607 10609 10611 10614 10615 10616 10617 10617 10618 10620 10620 10620 10619 10620 10621 10622 10622 10622 10622 10622 10621 10621 10620 10620 10619 10619 10618 10617 10616 10616 10615 10615 10614 10613 10613 10612 10611 10610 10609 10608 10608 10607 10606 10605 10605
10438 10444 10451 10456 10461 10470 10477 10482 10487 10491 10496 10501 10506 10511 10515 10520 10525 10531 10537 10543 10548 10553 10558 10562 10566 10570 10573 10575 10578 10582 10584 10585 10587 10589 10592 10594 10596 10597 10598 10600 10601 10603 10606 10609 10609 10609 10611 10612 10612 10613 10615 10615 10615 10614 10615 10617 10618 10618 10618 10618 10617 10616 10616 10615 10615 10614 10613 10613 10612 10611 10610 10610 10609 10609 10608 10608 10607 10606 10605 10604 10603 10602 10602 10601 10600 10600
10437 10442 10447 10452 10460 10468 10474 10479 10484 10487 10491 10496 10501 10506 10510 10515 10520 10526 10531 10536 10541 10546 10550 10554 10559 10564 10567 10570 10574 10577 10578 10581 10583 10586 10588 10589 10591 10592 10593 10595 10597 10600 10604 10605 10603 10603 10605 10606 10607 10609 10609 10609 10609 10609 10611 10613 10614 10613 10613 10613 10612 10612 10611 10610 10609 10609 10608 10607 10607 10606 10605 10604 10604 10604 10603 10603 10602 10601 10600 10599 10598 10597 10596 10596 10595 10594
10436 10440 10444 10451 10459 10466 10471 10476 10481 10484 10488 10493 10498 10502 10507 10511 10516 10522 10527 10532 10537 10541 10545 10549 10554 10559 10562 10565 10568 10570 10573 10575 10578 10580 10582 10584 10585 10587 10588 10590 10592 10596 10600 10601 10599 10599 10600 10601 10602 10604 10604 10604 10603 10604 10606 10609 10609 10608 10608 10607 10607 10607 10606 10605 10604 10604 10603 10602 10601 10601 10600 10599 10599 10598 10598 10597 10597 10596 10595 10594 10593 10592 10591 10590 10590 10589
10432 10437 10443 10450 10458 10465 10470 10475 10479 10482 10486 10491 10496 10501 10505 10509 10514 10519 10524 10528 10533 10536 10540 10545 10549 10552 10555 10557 10560 10563 10566 10569 10571 10574 10577 10578 10579 10581 10582 10584 10587 10591 10595 10596 10596 10596 10596 10597 10598 10598 10598 10598 10597 10598 10602 10604 10603 10602 10602 10602 10602 10601 10601 10600 10599 10598 10598 10597 10596 10595 10595 10594 10593 10593 10592 10592 10591 10590 10589 10588 10588 10587 10586 10585 10584 10584
10430 10436 10443 10450 10456 10463 10469 10473 10477 10480 10485 10490 10495 10500 10504 10507 10512 10516 10520 10524 10528 10531 10535 10539 10542 10545 10548 10551 10554 10557 10560 10562 10565 10568 10570 10571 10573 10574 10576 10579 10582 10586 10589 10590 10591 10591 10592 10592 10593 10593 10593 10592 10591 10592 10596 10598 10597 10596 10596 10597 10596 10596 10595 10594 10594 10593 10592 10592 10591 10590 10589 10588 10588 10587 10587 10586 10585 10585 10584 10583 10582 10581 10580 10579 10578 10578
10429 10435 10441 10448 10455 10462 10466 10470 10473 10477 10483 10488 10493 10497 10501 10505 10509 10513 10516 10520 10523 10526 10530 10533 10536 10538 10542 10545 10547 10550 10553 10555 10558 10560 10563 10564 10566 10567 10570 10573 10576 10579 10582 10583 10585 10586 10587 10587 10587 10587 10586 10585 10585 10587 10591 10592 10590 10590 10591 10591 10590 10590 10589 10589 10588 10587 10587 10586 10585 10584 10583 10582 10582 10581 10581 10580 10579 10579 10578 10577 10576 10575 10574 10573 10572 10571
10426 10432 10439 10446 10453 10459 10463 10466 10470 10476 10482 10486 10489 10492 10497 10501 10506 10509 10512 10515 10518 10521 10524 10527 10530 10532 10535 10538 10541 10544 10547 10549 10552 10554 10556 10558 10559 10561 10564 10567 10569 10572 10574 10576 10579 10581 10582 10581 10580 10580 10579 10578 10579 10582 10585 10585 10584 10584 10585 10585 10584 10583 10583 10583 10582 10582 10581 10580 10579 10578 10577 10577 10576 10575 10575 10574 10573 10572 10572 10571 10570 10569 10568 10567 10566 10565
10424 10430 10437 10444 10450 10456 10460 10464 10470 10475 10478 10481 10484 10488 10492 10497 10501 10504 10507 10510 10513 10515 10519 10522 10524 10527 10530 10532 10535 10537 10540 10543 10545 10547 10549 10551 10553 10555 10557 10560 10562 10564 10566 10569 10573 10575 10575 10574 10573 10572 10571 10572 10574 10577 10578 10578 10577 10578 10578 10578 10578 10577 10577 10577 10577 10576 10575 10574 10574 10573 10572 10571 10570 10570 10569 10568 10567 10566 10565 10564 10563 10562 10561 10560 10559 10558
10422 10428 10435 10441 10447 10452 10456 10461 10466 10470 10473 10476 10480 10484 10488 10492 10495 10498 10501 10504 10507 10511 10514 10516 10519 10521 10524 10526 10528 10531 10533 10536 10538 10540 10542 10544 10546 10547 10549 10552 10555 10558 10560 10563 10566 10567 10566 10567 10566 10564 10564 10566 10568 10571 10572 10571 10571 10572 10572 10572 10572 10571 10571 10572 10571 10570 10569 10569 10568 10567 10566 10565 10565 10564 10563 10562 10561 10560 10559 10558 10557 10556 10554 10553 10552 10551
10418 10424 10430 10435 10440 10445 10449 10454 10459 10464 10468 10472 10475 10479 10482 10486 10490 10493 10496 10500 10503 10506 10508 10511 10513 10515 10517 10520 10522 10524 10527 10529 10530 10531 10533 10535 10537 10539 10542 10547 10550 10552 10555 10557 10559 10559 10558 10559 10557 10556 10557 10560 10562 10565 10565 10565 10565 10566 10566 10566 10566 10566 10566 10566 10565 10564 10563 10563 10562 10561 10560 10559 10559 10558 10558 10557 10555 10554 10553 10552 10550 10549 10548 10547 10545 10544
10415 10421 10427 10432 10437 10442 10446 10451 10457 10461 10464 10466 10469 10473 10477 10481 10484 10488 10492 10497 10500 10501 10503 10505 10507 10509 10512 10514 10516 10519 10521 10522 10521 10522 10526 10529 10531 10534 10539 10542 10544 10547 10549 10551 10553 10552 10550 10549 10548 10547 10550 10554 10557 10558 10559 10559 10559 10559 10560 10560 10560 10560 10560 10559 10558 10558 10557 10557 10556 10555 10554 10554 10553 10552 10551 10551 10549 10548 10547 10545 10544 10542 10541 10540 10539 10538
10414 10419 10425 10431 10436 10441 10446 10451 10456 10459 10461 10462 10465 10469 10472 10476 10480 10485 10490 10494 10493 10494 10497 10499 10501 10504 10506 10509 10511 10513 10514 10513 10514 10518 10522 10524 10526 10530 10534 10536 10538 10540 10541 10543 10546 10545 10541 10540 10541 10541 10544 10548 10551 10552 10552 10553 10553 10553 10554 10554 10554 10554 10553 10552 10552 10552 10552 10551 10551 10550 10549 10548 10547 10546 10545 10544 10543 10542 10540 10539 10537 10536 10535 10533 10532 10531
10412 10418 10423 10428 10433 10438 10443 10448 10452 10455 10457 10459 10462 10465 10469 10474 10479 10483 10486 10485 10484 10487 10492 10494 10496 10499 10502 10504 10506 10507 10507 10508 10511 10515 10517 10519 10521 10525 10527 10529 10531 10533 10535 10537 10539 10538 10534 10534 10535 10536 10538 10542 10545 10546 10546 10546 10546 10547 10547 10548 10548 10547 10547 10547 10547 10547 10546 10546 10545 10544 10543 10542 10541 10540 10539 10538 10537 10535 10534 10532 10531 10529 10528 10526 10525 10524
10413 10417 10421 10426 10430 10435 10439 10444 10448 10451 10453 10455 10458 10461 10466 10472 10476 10478 10478 10477 10480 10485 10488 10490 10493 10496 10498 10499 10500 10500 10501 10504 10507 10510 10512 10514 10517 10519 10522 10524 10526 10527 10529 10531 10531 10531 10530 10529 10530 10531 10533 10536 10538 10539 10540 10540 10540 10541 10541 10542 10542 10542 10542 10542 10541 10541 10540 10540 10539 10538 10537 10536 10535 10534 10532 10531 10530 10528 10527 10525 10524 10522 10521 10519 10518 10517
10412 10416 10420 10425 10429 10433 10437 10442 10445 10446 10447 10449 10453 10457 10461 10465 10468 10469 10471 10474 10478 10481 10484 10487 10489 10491 10493 10494 10494 10494 10497 10501 10503 10505 10507 10510 10512 10514 10516 10518 10520 10521 10523 10524 10523 10524 10525 10525 10526 10527 10528 10530 10532 10533 10533 10534 10534 10535 10535 10536 10536 10536 10536 10536 10535 10535 10534 10533 10532 10531 10531 10530 10529 10527 10526 10524 10522 10521 10519 10518 10516 10515 10513 10512 10510 10509
10411 10415 10419 10423 10427 10431 10435 10437 10438 10438 10440 10444 10448 10452 10455 10459 10462 10465 10469 10472 10475 10478 10481 10483 10484 10486 10487 10488 10489 10490 10494 10497 10498 10501 10503 10505 10507 10508 10510 10512 10514 10515 10516 10517 10517 10518 10519 10520 10521 10522 10524 10525 10526 10527 10527 10528 10529 10529 10530 10530 10530 10530 10530 10530 10529 10529 10528 10527 10526 10525 10525 10524 10522 10521 10519 10517 10515 10514 10512 10510 10509 10507 10506 10504 10502 10501
10409 10413 10416 10419 10423 10427 10429 10430 10432 10434 10439 10443 10446 10449 10452 10456 10460 10463 10466 10469 10471 10474 10476 10477 10478 10480 10481 10482 10485 10487 10489 10491 10493 10496 10498 10499 10501 10503 10504 10506 10508 10509 10510 10511 10511 10512 10514 10514 10516 10517 10519 10520 10521 10521 10522 10522 10523 10523 10524 10524 10524 10524 10524 10523 10523 10523 10522 10521 10521 10520 10519 10518 10516 10514 10512 10510 10509 10507 10505 10503 10501 10500 10498 10496 10495 10493
10405 10409 10413 10417 10420 10423 10425 10427 10430 10434 10437 10440 10442 10446 10449 10453 10456 10459 10461 10463 10466 10468 10470 10471 10472 10474 10475 10477 10481 10483 10484 10486 10488 10490 10492 10493 10495 10497 10498 10499 10501 10503 10504 10505 10505 10506 10507 10508 10510 10511 10513 10514 10515 10516 10516 10517 10517 10518 10518 10518 10518 10518 10518 10518 10518 10517 10516 10516 10515 10514 10513 10511 10509 10507 10505 10504 10502 10500 10498 10496 10494 10492 10490 10489 10487 10485
10403 10407 10411 10414 10416 10418 10421 10423 10427 10430 10432 10435 10438 10441 10445 10448 10451 10453 10455 10458 10460 10461 10463 10465 10466 10468 10470 10473 10476 10478 10480 10482 10484 10485 10486 10487 10489 10490 10492 10494 10496 10497 10498 10498 10499 10500 10501 10502 10504 10505 10507 10508 10509 10510 10511 10511 10512 10512 10512 10512 10512 10512 10512 10512 10512 10511 10510 10510 10509 10508 10506 10504 10502 10500 10499 10497 10495 10493 10491 10489 10487 10485 10483 10481 10479 10477
10400 10404 10407 10409 10411 10414 10417 10419 10422 10425 10427 10430 10434 10437 10439 10442 10445 10448 10451 10453 10454 10455 10457 10459 10461 10463 10464 10467 10471 10473 10475 10477 10479 10479 10480 10481 10483 10485 10487 10488 10489 10490 10491 10491 10492 10493 10494 10496 10497 10499 10500 10501 10503 10504 10505 10506 10506 10507 10507 10506 10506 10506 10506 10506 10506 10505 10504 10503 10502 10501 10499 10498 10496 10494 10492 10490 10488 10486 10485 10483 10481 10478 10476 10474 10472 10470
10397 10399 10402 10404 10407 10410 10412 10414 10416 10419 10422 10425 10429 10432 10434 10437 10440 10443 10445 10446 10446 10448 10451 10454 10456 10457 10459 10462 10465 10468 10470 10472 10473 10474 10475 10476 10478 10479 10481 10482 10483 10484 10484 10485 10486 10487 10489 10490 10492 10493 10494 10496 10497 10499 10500 10501 10501 10502 10501 10501 10501 10501 10501 10500 10499 10499 10498 10497 10495 10494 10493 10491 10488 10486 10485 10483 10481 10480 10478 10476 10474 10471 10469 10467 10464 10462
10392 10395 10397 10400 10402 10404 10406 10409 10411 10414 10417 10421 10424 10426 10429 10431 10434 10437 10439 10438 10439 10441 10444 10447 10449 10451 10454 10458 10460 10463 10465 10466 10467 10469 10471 10472 10473 10474 10475 10477 10478 10479 10479 10480 10481 10482 10484 10485 10487 10488 10490 10491 10493 10494 10495 10495 10496 10496 10495 10495 10495 10495 10495 10494 10493 10492 10491 10490 10489 10488 10486 10484 10481 10479 10478 10476 10475 10473 10471 10469 10467 10464 10462 10459 10456 10454
10387 10390 10392 10395 10396 10398 10401 10404 10406 10409 10412 10415 10417 10419 10422 10424 10427 10429 10431 10431 10432 10435 10438 10441 10443 10446 10449 10453 10456 10458 10460 10462 10463 10465 10466 10468 10468 10469 10470 10472 10473 10473 10474 10476 10477 10478 10479 10481 10482 10484 10485 10487 10487 10488 10489 10489 10489 10490 10490 10489 10489 10489 10488 10487 10486 10486 10485 10483 10482 10482 10480 10477 10474 10473 10471 10470 10468 10467 10465 10462 10460 10457 10454 10451 10448 10445